When you browse on this site, cookies collect data to enhance your experience and personalize the content and advertising you see.
Visit our Privacy Policy to learn more. By continuing to use the site, you agree to this use of cookies and data.
  • In Portugal
  • List of Countries
  • For 7 days
  • Water Temperature
  • Weather Map
  • Weather Widgets
  • user-avatar
    Login

    Hourly Weather Senaki

    Today, 14 December, Saturday

    Time Temperature Precipitation Wind Pressure Humidity
    00:00 +10°C° 0 mm 6 mps 758 mmHg 49%
    01:00 +10°C° 0 mm 6 mps 758 mmHg 50%
    02:00 +9°C° 0 mm 6 mps 758 mmHg 51%
    03:00 +9°C° 0 mm 6 mps 758 mmHg 52%
    04:00 +9°C° 0 mm 6 mps 758 mmHg 52%
    05:00 +9°C° 0 mm 6 mps 758 mmHg 52%
    06:00 +9°C° 0 mm 5 mps 759 mmHg 52%
    07:00 +9°C° 0 mm 5 mps 759 mmHg 51%
    08:00 +10°C° 0 mm 6 mps 759 mmHg 51%
    09:00 +10°C° 0 mm 6 mps 759 mmHg 50%
    10:00 +13°C° 0 mm 6 mps 758 mmHg 47%
    11:00 +14°C° 0 mm 6 mps 758 mmHg 44%
    12:00 +16°C° 0 mm 6 mps 758 mmHg 40%
    13:00 +16°C° 0 mm 6 mps 758 mmHg 41%
    14:00 +16°C° 0 mm 5 mps 757 mmHg 41%
    15:00 +16°C° 0 mm 5 mps 757 mmHg 41%
    16:00 +15°C° 0 mm 5 mps 758 mmHg 42%
    17:00 +14°C° 0 mm 5 mps 758 mmHg 43%
    18:00 +13°C° 0 mm 5 mps 758 mmHg 45%
    19:00 +13°C° 0 mm 5 mps 759 mmHg 45%
    20:00 +13°C° 0 mm 5 mps 759 mmHg 45%
    21:00 +12°C° 0 mm 5 mps 759 mmHg 46%
    22:00 +12°C° 0 mm 5 mps 759 mmHg 46%
    23:00 +12°C° 0 mm 4 mps 759 mmHg 46%

    Tomorrow, 15 December, Sunday

    Time Temperature Precipitation Wind Pressure Humidity
    00:00 +12°C° 0 mm 4 mps 759 mmHg 47%
    01:00 +11°C° 0 mm 4 mps 759 mmHg 48%
    02:00 +11°C° 0 mm 3 mps 759 mmHg 48%
    03:00 +11°C° 0 mm 3 mps 759 mmHg 49%
    04:00 +10°C° 0 mm 3 mps 759 mmHg 50%
    05:00 +10°C° 0 mm 3 mps 759 mmHg 50%
    06:00 +10°C° 0 mm 3 mps 759 mmHg 51%
    07:00 +10°C° 0 mm 3 mps 760 mmHg 51%
    08:00 +12°C° 0 mm 2 mps 760 mmHg 51%
    09:00 +12°C° 0 mm 2 mps 760 mmHg 51%
    10:00 +14°C° 0 mm 2 mps 760 mmHg 48%
    11:00 +15°C° 0 mm 2 mps 760 mmHg 45%
    12:00 +17°C° 0 mm 2 mps 760 mmHg 42%
    13:00 +18°C° 0 mm 1 mps 760 mmHg 44%
    14:00 +18°C° 0 mm 1 mps 760 mmHg 46%
    15:00 +16°C° 0 mm 0 mps 760 mmHg 48%
    16:00 +15°C° 0 mm 0 mps 761 mmHg 51%
    17:00 +15°C° 0 mm 1 mps 761 mmHg 53%
    18:00 +14°C° 0 mm 1 mps 762 mmHg 55%
    19:00 +13°C° 0 mm 1 mps 762 mmHg 57%
    20:00 +13°C° 0 mm 1 mps 763 mmHg 59%
    21:00 +13°C° 0 mm 1 mps 763 mmHg 60%
    22:00 +13°C° 0 mm 1 mps 763 mmHg 61%
    23:00 +13°C° 0 mm 1 mps 764 mmHg 61%

    Day after tomorrow, 16 December, Monday

    Time Temperature Precipitation Wind Pressure Humidity
    00:00 +13°C° 0 mm 1 mps 764 mmHg 62%
    01:00 +13°C° 0 mm 1 mps 764 mmHg 62%
    02:00 +13°C° 0 mm 1 mps 764 mmHg 63%
    03:00 +13°C° 0 mm 1 mps 764 mmHg 64%
    04:00 +13°C° 0 mm 1 mps 765 mmHg 67%
    05:00 +12°C° 0 mm 1 mps 765 mmHg 70%
    06:00 +12°C° 0 mm 1 mps 765 mmHg 74%
    07:00 +12°C° 0.1 mm 1 mps 765 mmHg 74%
    08:00 +13°C° 0.1 mm 1 mps 766 mmHg 75%
    09:00 +13°C° 0.1 mm 1 mps 766 mmHg 76%
    10:00 +13°C° 0.4 mm 1 mps 766 mmHg 75%
    11:00 +14°C° 0.4 mm 2 mps 766 mmHg 74%
    12:00 +15°C° 0.4 mm 2 mps 766 mmHg 74%
    13:00 +14°C° 0.6 mm 2 mps 765 mmHg 76%
    14:00 +14°C° 0.6 mm 2 mps 765 mmHg 78%
    15:00 +14°C° 0.6 mm 2 mps 765 mmHg 81%
    16:00 +13°C° 0.4 mm 2 mps 766 mmHg 84%
    17:00 +13°C° 0.4 mm 2 mps 766 mmHg 87%
    18:00 +12°C° 0.4 mm 2 mps 767 mmHg 90%
    19:00 +12°C° 0.3 mm 2 mps 767 mmHg 89%
    20:00 +11°C° 0.3 mm 3 mps 768 mmHg 88%
    21:00 +11°C° 0.3 mm 3 mps 768 mmHg 87%
    22:00 +10°C° 0.1 mm 3 mps 768 mmHg 88%
    23:00 +10°C° 0.1 mm 2 mps 769 mmHg 89%

    17 December, Tuesday

    Time Temperature Precipitation Wind Pressure Humidity
    00:00 +10°C° 0.1 mm 1 mps 769 mmHg 89%
    01:00 +10°C° 0 mm 1 mps 769 mmHg 89%
    02:00 +10°C° 0 mm 1 mps 769 mmHg 89%
    03:00 +10°C° 0 mm 1 mps 769 mmHg 89%
    04:00 +10°C° 0 mm 1 mps 769 mmHg 89%
    05:00 +9°C° 0 mm 0 mps 769 mmHg 89%
    06:00 +9°C° 0 mm 0 mps 769 mmHg 88%
    07:00 +9°C° 0 mm 0 mps 770 mmHg 88%
    08:00 +10°C° 0 mm 1 mps 770 mmHg 87%
    09:00 +10°C° 0 mm 1 mps 770 mmHg 86%
    10:00 +11°C° 0 mm 1 mps 769 mmHg 80%
    11:00 +13°C° 0 mm 1 mps 769 mmHg 75%
    12:00 +13°C° 0 mm 0 mps 768 mmHg 70%
    13:00 +13°C° 0 mm 0 mps 768 mmHg 69%
    14:00 +13°C° 0 mm 0 mps 767 mmHg 68%
    15:00 +13°C° 0 mm 0 mps 767 mmHg 67%
    16:00 +12°C° 0 mm 0 mps 768 mmHg 72%
    17:00 +11°C° 0 mm 0 mps 768 mmHg 78%
    18:00 +9°C° 0 mm 0 mps 768 mmHg 84%
    19:00 +9°C° 0 mm 0 mps 769 mmHg 85%
    20:00 +9°C° 0 mm 0 mps 769 mmHg 86%
    21:00 +8°C° 0 mm 0 mps 769 mmHg 87%
    22:00 +8°C° 0 mm 0 mps 769 mmHg 87%
    23:00 +9°C° 0 mm 1 mps 769 mmHg 86%

    18 December, Wednesday

    Time Temperature Precipitation Wind Pressure Humidity
    00:00 +9°C° 0 mm 1 mps 769 mmHg 86%
    01:00 +9°C° 0 mm 1 mps 769 mmHg 84%
    02:00 +8°C° 0 mm 1 mps 769 mmHg 83%
    03:00 +8°C° 0 mm 1 mps 769 mmHg 82%
    04:00 +8°C° 0 mm 1 mps 769 mmHg 79%
    05:00 +8°C° 0 mm 1 mps 769 mmHg 76%
    06:00 +8°C° 0 mm 1 mps 769 mmHg 73%
    07:00 +8°C° 0 mm 1 mps 769 mmHg 70%
    08:00 +9°C° 0 mm 1 mps 769 mmHg 67%
    09:00 +9°C° 0 mm 1 mps 769 mmHg 64%
    10:00 +11°C° 0 mm 1 mps 769 mmHg 59%
    11:00 +13°C° 0 mm 1 mps 768 mmHg 54%
    12:00 +14°C° 0 mm 1 mps 768 mmHg 49%
    13:00 +15°C° 0 mm 1 mps 768 mmHg 50%
    14:00 +15°C° 0 mm 1 mps 768 mmHg 51%
    15:00 +15°C° 0 mm 1 mps 767 mmHg 52%
    16:00 +14°C° 0 mm 1 mps 768 mmHg 55%
    17:00 +12°C° 0 mm 1 mps 768 mmHg 58%
    18:00 +11°C° 0 mm 1 mps 769 mmHg 61%
    19:00 +11°C° 0 mm 1 mps 769 mmHg 62%
    20:00 +10°C° 0 mm 1 mps 769 mmHg 62%
    21:00 +10°C° 0 mm 1 mps 769 mmHg 63%
    22:00 +9°C° 0 mm 2 mps 769 mmHg 62%
    23:00 +8°C° 0 mm 2 mps 769 mmHg 60%

    19 December, Thursday

    Time Temperature Precipitation Wind Pressure Humidity
    00:00 +8°C° 0 mm 2 mps 769 mmHg 59%
    01:00 +8°C° 0 mm 2 mps 769 mmHg 58%
    02:00 +8°C° 0 mm 2 mps 769 mmHg 57%
    03:00 +8°C° 0 mm 2 mps 768 mmHg 56%
    04:00 +8°C° 0 mm 2 mps 768 mmHg 55%
    05:00 +8°C° 0 mm 2 mps 768 mmHg 54%
    06:00 +7°C° 0 mm 2 mps 768 mmHg 54%
    07:00 +8°C° 0 mm 2 mps 768 mmHg 53%
    08:00 +9°C° 0 mm 2 mps 768 mmHg 52%
    09:00 +9°C° 0 mm 2 mps 768 mmHg 51%
    10:00 +12°C° 0 mm 2 mps 767 mmHg 47%
    11:00 +14°C° 0 mm 2 mps 767 mmHg 43%
    12:00 +16°C° 0 mm 2 mps 766 mmHg 40%
    13:00 +16°C° 0 mm 2 mps 766 mmHg 42%
    14:00 +18°C° 0 mm 1 mps 765 mmHg 44%
    15:00 +18°C° 0 mm 1 mps 765 mmHg 46%
    16:00 +15°C° 0 mm 1 mps 765 mmHg 48%
    17:00 +14°C° 0 mm 1 mps 765 mmHg 49%
    18:00 +13°C° 0 mm 1 mps 765 mmHg 50%
    19:00 +12°C° 0 mm 1 mps 765 mmHg 50%
    20:00 +12°C° 0 mm 2 mps 765 mmHg 50%
    21:00 +10°C° 0 mm 2 mps 765 mmHg 50%
    22:00 +10°C° 0 mm 2 mps 765 mmHg 50%
    23:00 +10°C° 0 mm 2 mps 764 mmHg 49%
    Show more